616  
ASUS42 KILM 140812  
RWRILM  
RWRILM  
REGIONAL HOURLY WEATHER ROUNDUP  
NATIONAL WEATHER SERVICE WILMINGTON NC  
400 AM EDT WED APR 14 2021  
 
NOTE: "FAIR" INDICATES FEW OR NO CLOUDS BELOW 12,000 FEET WITH NO  
SIGNIFICANT WEATHER AND/OR S TO VISIBILITY
.  
   
..............WFO WILMINGTON COUNTY WARNING AREA............
 
 
   
.....COASTAL NC AND SC COUNTIES...
 
 
 
CITY SKY/WX TMP DP RH WIND PRES REMARKS
 
WILMINGTON PTCLDY 55 52 89 CALM 30.10S  
N MYRTLE BEACH CLEAR 60 57 89 SW3 30.10R  
MYRTLE BEACH CLEAR 61 61 100 CALM 30.10S  
   
.....INLAND NC AND SC COUNTIES....
 
 
 
CITY SKY/WX TMP DP RH WIND PRES REMARKS
 
LUMBERTON NOT AVBL  
ELIZABETHTOWN MOCLDY 55 53 94 S6 30.11S  
WHITEVILLE CLEAR 55 53 94 CALM 30.12R  
FLORENCE CLEAR 56 51 84 CALM 30.09S  
DARLINGTON CLEAR 55 53 93 CALM 30.09S  
KINGSTREE FAIR 52 50 93 CALM 30.10S  
HARTSVILLE MOCLDY 52 48 87 CALM 30.09S  
BENNETTSVILLE FAIR 55 54 94 CALM 30.08S  
CONWAY FAIR 52 50 93 CALM 30.10F  
GEORGETOWN FAIR 52 52 100 CALM 30.11S  
MARION FAIR 55 55 100 S3 30.10S  
   
...................REST OF NORTH CAROLINA...................
 
 
   
........EASTERN NC......
 
 
 
CITY SKY/WX TMP DP RH WIND PRES REMARKS
 
CAPE HATTERAS CLEAR 51 46 83 CALM 30.10R  
JACKSONVILLE PTCLDY 52 51 97 CALM 30.12S FOG  
MOREHEAD CITY PTCLDY 51 48 89 NE5 30.11S  
KENANSVILLE CLEAR 52 52 100 CALM 30.11S FOG  
NEW BERN CLEAR 50 48 93 CALM 30.13F  
ELIZABETH CITY N/A N/A N/A N/A MISG 30.11S  
   
........CENTRAL NC......
 
 
 
CITY SKY/WX TMP DP RH WIND PRES REMARKS
 
RALEIGH DURHAM PTCLDY 58 52 80 S7 30.08F  
ROCKY MOUNT CLEAR 54 50 86 CALM 30.10F  
ROANOKE RAPIDS NOT AVBL  
FAYETTEVILLE CLEAR 55 52 89 SE3 30.08S  
HOFFMAN CLEAR 51 49 93 CALM 30.08S  
   
........WESTERN NC......
 
 
 
CITY SKY/WX TMP DP RH WIND PRES REMARKS
 
CHARLOTTE PTCLDY 55 51 86 CALM 30.09R  
GREENSBORO CLEAR 53 46 77 SW3 30.07R  
HICKORY NOT AVBL  
BOONE NOT AVBL  
ASHEVILLE NOT AVBL  
   
....................REST OF SOUTH CAROLINA..................
 
 
   
........EASTERN SC......
 
 
 
CITY SKY/WX TMP DP RH WIND PRES REMARKS
 
CHARLESTON CLEAR 60 57 89 CALM 30.08F  
BEAUFORT MCAS CLEAR 59 56 89 SW3 30.09S  
HILTON HEAD CLEAR 59 59 100 CALM 30.09S  
   
........CENTRAL SC......
 
 
 
CITY SKY/WX TMP DP RH WIND PRES REMARKS
 
COLUMBIA CLEAR 58 52 80 E3 30.06F  
ORANGEBURG CLEAR 56 54 93 CALM 30.08F  
SUMTER SHAW CLEAR 55 53 91 CALM 30.08S  
   
........WESTERN SC......
 
 
 
CITY SKY/WX TMP DP RH WIND PRES REMARKS
 
GREENVILLE NOT AVBL  
ROCK HILL CLEAR 54 48 80 S5 30.08S  
ANDERSON N/A N/A N/A N/A MISG 30.06F  
CLEMSON NOT AVBL  
GREENWOOD CLEAR 52 52 100 CALM 30.08S  
 
   
..................COASTAL AND OFFSHORE REPORTS...............
 
 
   
...............LOCAL PIERS AND NC RESERVE.............
 
 
 
STATION/POSITION TIME SKY/WX TEMP WIND PRES VSBY
 
AIR SEA DIR/SP/G  
(UTC) (F) (DEG/KT/KT) (MB) (MI)  
JOHNY MRCER PIER 0730 62 65 120/ 7/ 8 1018.8F  
NC RESRV MASNBRO 0645 61 180/ 4 N/A  
OCEAN CREST PIER NOT AVBL  
SPRINGMAID PIER 0730 63 N/A  
 
   
...............COASTAL AND OFFSHORE BUOYS.............
 
 
 
STATION/POSITION TIME SKY/WX TEMP WIND PRES VSBY
 
AIR SEA DIR/SP/G  
(UTC) (F) (DEG/KT/KT) (MB) (MI)  
DIMNDSHOAL 41025 NOT AVBL  
CAPE LOOKOUT 0800 57 20/ 7/ 7 1020.1R  
ONSLOW BAY 41036 NOT AVBL  
ONSLOW BAY 41064 NOT AVBL  
ONSLOW BAY 41159 0756 66 N/A  
WVE H/P(F/S)= 3/11 SWL H/P/D(F/S/D)= 2/ 80/11  
 
MASNBO INL 41110 0737 64 N/A  
WVE H/P(F/S)= 2/11 SWL H/P/D(F/S/D)= 2/100/11  
 
WILM HARBR 41108 0730 64 N/A  
WVE H/P(F/S)= 2/11 SWL H/P/D(F/S/D)= 2/110/11  
 
27SE WRITB 41037 0708 54 63 N/A  
FRYING PAN 41013 0750 66 100/ 4/ 6 1018.6R  
WVE H/P(F/S)= 4/10 SWL H/P/D(F/S/D)= 3/ 90/10  
 
SUNST NRSH 41024 0708 63 64 180/ 4/ 6 1020.3S  
CAPRS NRSH 41029 0753 65 65 260/ 2/ 4 1018.5R  
EDISTO 41004 NOT AVBL  
 
   
.........OFFSHORE BUOYS BEYOND 100 NM OFFSHORE........
 
   
....IN A TRIANGLE---HAT TO BERMUDA TO BAHAMAS TO HAT..
 
 
 
 
STATION/POSITION TIME SKY/WX TEMP WIND PRES VSBY
 
AIR SEA DIR/SP/G  
(UTC) (F) (DEG/KT/KT) (MB) (MI)  
150E HAT 41001 NOT AVBL  
W BERMUDA 41048 0750 65 69 360/ 19/ 27 1012.7F  
WVE H/P(F/S)= 10/10 SWL H/P/D(F/S/D)= 7/340/10  
 
ATLANTIC S 41049 0750 74 280/ 17/ 21 N/A  
WVE H/P(F/S)= 7/ 7 SWL H/P/D(F/S/D)= 2/360/14  
 
E BAHAMAS 41046 0750 75 76 310/ 14/ 16 1012.5F  
WVE H/P(F/S)= 4/ 8 SWL H/P/D(F/S/D)= 3/320/ 8  
 
NE BAHAMAS 41047 NOT AVBL  
120E CANVRL41010 0750 71 60/ 10/ 12 1019.1F  
WVE H/P(F/S)= 5/ 8 SWL H/P/D(F/S/D)= 3/ 10/ 8  
 
END  
 
 
CLICK HERE TO GO TO PREVIOUS BULLETINS.

The Nexlab NC Page
The Nexlab SC Page Main Text Page